Theta_e
352 354 352 350 349 345 347 340 333 326 328 342 334 344 341 341 339 341 339 330 329 325 324 324 325 328 330 332 332 332 332 333 334 335 335 333 332 328
351 354 355 353 350 346 345 342 338 330 325 336 336 341 341 339 337 340 339 331 327 324 324 322 322 324 326 327 327 328 329 329 329 330 331 331 329 325
355 355 353 357 346 345 342 341 334 334 330 337 337 341 339 337 337 338 338 339 337 322 323 321 319 320 322 322 323 324 325 326 325 327 327 327 327 328
353 350 351 347 351 353 344 348 338 348 334 339 337 335 334 338 337 336 334 335 339 324 322 319 317 316 316 317 318 319 320 321 322 323 323 324 325 327
351 351 350 349 350 349 345 341 337 338 336 332 335 339 334 338 334 335 335 335 336 324 319 318 317 317 316 316 315 315 315 315 316 317 319 320 322 323
354 351 347 348 347 346 345 343 342 339 337 338 336 334 332 336 333 330 326 333 331 335 326 326 320 318 316 315 316 316 314 313 312 313 313 313 314 317
353 348 350 344 333 339 339 343 342 336 334 335 333 334 330 329 329 331 327 329 329 332 332 333 333 330 324 316 321 318 313 311 312 310 310 308 308 311
349 347 346 333 329 323 320 318 330 340 336 337 334 330 333 332 336 331 327 323 322 330 331 331 336 332 329 330 317 312 311 310 310 309 309 308 306 307
347 347 342 339 333 338 317 315 316 316 320 338 335 334 327 334 333 331 332 325 329 328 330 323 329 327 330 324 310 308 308 309 309 308 307 306 305 304
348 346 344 341 337 336 335 333 334 335 333 333 337 337 338 338 334 335 335 332 331 328 331 321 323 322 324 326 308 308 308 308 307 305 305 305 303 302
344 343 342 339 316 311 336 334 333 330 311 307 307 307 307 308 319 331 330 327 323 324 327 324 321 319 322 321 316 307 305 305 304 304 304 304 303 302
342 337 310 329 304 307 336 334 329 331 330 329 328 319 315 314 311 332 328 326 324 320 329 324 323 321 317 322 319 313 313 304 303 304 304 304 302 314
334 335 334 303 301 301 306 335 329 329 321 328 327 326 328 326 326 329 330 326 320 322 327 330 325 325 324 321 322 320 319 317 316 310 301 302 301 308
331 333 322 299 298 300 310 301 303 315 325 323 322 323 322 325 326 330 330 328 328 324 327 329 331 328 326 322 322 323 321 325 321 319 320 313 301 301
334 311 300 297 298 304 299 299 304 326 323 322 320 319 320 323 325 327 330 328 327 328 331 334 333 334 331 330 325 325 322 324 325 322 322 322 321 321
311 321 314 312 310 315 314 312 326 326 322 324 323 324 323 322 322 326 325 326 324 325 331 333 334 334 331 332 332 329 327 326 327 329 327 330 326 327
324 325 323 323 322 322 323 324 325 325 325 325 325 322 321 320 322 326 325 327 323 323 323 328 331 333 335 331 327 329 328 328 330 329 328 323 323 325
325 325 321 321 322 321 322 326 326 321 324 325 324 322 322 320 324 325 325 324 322 324 325 325 327 326 326 328 324 329 329 328 326 325 324 321 321 324
326 323 320 320 322 324 325 326 323 326 326 324 323 323 323 322 320 321 321 322 324 323 324 323 324 322 319 317 326 308 325 328 327 323 322 320 317 320
326 323 322 321 323 323 325 326 324 325 325 325 324 324 322 320 319 320 323 322 323 323 325 326 324 324 321 320 320 325 299 322 323 324 322 320 320 303
325 323 323 323 323 325 327 325 325 324 323 324 323 322 322 320 320 321 321 304 309 319 319 320 326 298 326 324 318 320 323 298 311 321 321 319 319 320
325 323 322 322 322 327 326 327 326 324 324 323 323 323 324 322 320 320 321 320 321 323 323 325 324 320 318 317 315 318 321 324 306 300 300 307 318 317
325 325 323 325 326 328 327 324 326 324 324 324 324 324 323 321 321 323 320 321 321 320 323 321 319 318 318 317 310 316 318 320 320 318 311 302 301 301
Wind_Speed
9 10 11 7 6 6 3 11 8 9 6 5 2 3 2 5 3 5 7 11 9 8 8 8 8 9 11 11 11 11 11 11 13 17 18 18 19 19
9 12 11 10 6 7 5 4 8 8 7 4 4 6 4 1 2 5 3 8 9 9 8 8 9 10 11 11 10 11 13 14 14 17 18 19 19 20
12 12 13 12 9 6 4 9 8 7 2 1 6 6 4 3 3 4 5 7 7 9 9 8 9 9 9 10 10 12 14 15 16 16 16 16 17 18
13 11 14 10 11 7 5 7 8 2 6 4 3 5 4 6 6 6 3 5 3 8 7 5 6 6 6 7 9 12 15 17 16 16 14 13 12 14
13 13 13 13 11 7 9 7 8 6 6 7 5 4 5 6 3 4 2 1 2 7 6 6 6 7 7 9 11 14 16 15 15 16 15 13 11 11
13 13 13 14 12 10 9 7 6 5 5 1 3 5 5 6 5 5 3 3 1 2 4 6 6 5 5 9 12 14 14 16 16 16 14 12 12 10
13 13 12 11 10 11 8 8 8 7 4 5 5 5 6 6 7 5 5 4 2 1 4 5 6 4 3 5 8 14 14 14 14 12 11 10 10 11
12 13 9 10 9 9 9 10 1 6 8 5 3 5 8 6 3 6 5 5 3 1 4 4 3 4 4 5 9 12 14 13 12 11 11 11 9 10
12 11 11 10 10 10 7 6 6 7 3 5 7 6 4 8 6 6 7 8 4 6 3 2 1 3 1 4 10 10 11 12 11 10 9 9 9 9
12 13 11 10 12 11 11 9 9 9 8 6 7 5 4 5 8 6 6 3 6 5 3 3 1 2 1 3 7 12 10 10 9 9 9 9 10 10
13 13 11 11 13 6 9 8 7 6 7 9 10 7 2 1 3 4 4 6 4 3 2 3 3 2 1 1 3 5 9 11 11 11 11 11 11 10
11 9 11 5 13 11 9 8 5 7 6 5 5 5 4 4 8 5 5 5 4 3 3 4 5 4 2 1 3 4 4 7 10 12 11 10 9 5
10 9 7 12 11 10 2 6 6 7 5 4 4 4 4 6 4 3 4 7 3 2 3 6 5 6 4 4 3 5 6 5 6 4 7 8 10 10
8 7 10 13 9 10 7 11 12 9 6 5 3 3 3 4 5 5 4 3 2 3 3 9 4 8 6 5 6 6 5 6 7 6 6 7 12 12
7 13 17 12 11 8 8 10 10 7 7 5 4 3 2 3 2 1 4 6 7 5 6 11 6 4 7 6 4 7 8 8 8 8 8 8 8 10
15 11 9 8 3 9 6 5 6 6 5 7 6 6 4 5 4 4 6 5 4 5 5 6 8 5 4 5 5 6 8 7 11 11 9 10 8 9
12 10 8 8 7 7 7 7 6 7 5 3 7 7 5 4 6 7 6 6 6 6 7 7 7 7 5 5 6 6 7 6 6 9 9 6 7 9
9 9 7 7 8 8 8 9 9 8 7 6 6 6 7 5 6 6 5 5 6 3 4 6 6 7 7 8 6 5 5 5 6 6 6 6 6 6
5 8 7 8 7 8 6 8 7 7 7 6 6 6 7 6 5 5 5 5 5 5 5 4 6 6 6 7 5 5 7 5 5 8 6 6 4 6
5 8 7 8 7 7 7 6 4 6 6 6 6 7 6 5 4 4 5 6 4 3 1 3 3 4 4 4 3 2 7 4 4 8 7 4 6 5
6 7 7 9 8 5 7 6 6 7 7 7 6 7 7 6 6 6 5 2 3 3 4 5 1 4 2 2 3 5 4 13 7 3 1 3 5 4
7 7 7 6 6 7 6 5 6 8 7 6 6 7 6 6 6 6 4 4 6 5 5 2 4 2 1 2 4 7 5 4 6 8 8 3 5 5
7 8 8 7 8 8 8 6 6 6 6 5 5 6 6 5 5 4 4 3 2 3 4 4 4 4 5 2 2 5 8 7 2 3 3 7 2 4
Wind_Direction
194 215 227 228 214 243 247 237 261 273 226 177 206 172 147 167 146 222 238 177 186 192 206 211 204 203 194 194 193 188 177 170 167 157 158 162 159 157
201 201 213 235 195 230 240 262 263 264 288 165 187 147 140 207 96 259 113 164 183 192 201 207 202 206 193 193 186 175 169 161 154 155 165 167 167 174
199 194 204 223 207 185 221 232 242 246 272 135 145 121 137 206 233 255 269 246 183 195 202 204 202 207 194 193 185 177 169 166 162 160 165 169 184 187
195 202 202 207 218 202 220 227 241 195 249 243 148 149 207 203 213 217 240 294 236 175 186 195 194 211 180 182 179 173 165 174 169 157 164 174 204 170
184 205 204 202 198 191 235 213 213 243 222 250 185 212 181 178 163 202 196 260 102 134 141 151 160 179 168 169 176 171 170 166 161 165 171 176 181 175
192 197 203 205 193 195 213 223 225 224 228 335 170 179 198 172 213 189 197 189 156 111 86 134 145 145 154 167 165 163 162 160 164 167 167 172 167 173
184 194 203 203 181 203 210 201 222 225 209 229 198 209 192 200 206 195 190 188 86 299 172 165 167 162 146 161 170 167 161 157 164 160 162 166 177 179
180 192 170 124 121 114 103 65 40 206 225 230 214 208 204 208 207 188 179 180 192 217 184 125 181 171 178 184 163 157 155 153 166 168 179 177 189 191
176 185 178 180 173 189 119 122 128 116 117 257 245 231 232 201 198 206 186 199 219 135 166 98 47 96 26 122 147 150 151 156 169 176 177 181 191 200
177 182 193 165 184 193 189 204 218 207 211 230 241 273 265 182 197 204 196 97 90 131 189 122 86 89 49 74 146 156 161 172 176 176 182 190 197 202
177 187 195 184 162 170 198 197 211 142 86 78 67 50 122 96 158 166 171 174 157 165 197 125 125 90 101 120 124 158 169 178 182 184 189 197 199 201
175 143 69 189 145 159 208 193 193 175 173 181 146 127 137 132 157 178 178 199 157 153 190 160 154 149 136 140 150 151 180 196 195 194 194 201 199 208
177 156 151 128 141 151 197 191 206 149 126 182 156 154 162 159 185 222 231 175 144 226 157 184 174 177 171 143 168 180 182 173 194 205 207 212 203 212
159 144 120 128 130 141 171 116 117 131 150 148 141 147 139 166 182 195 190 156 163 221 319 208 211 186 200 164 174 171 193 198 193 202 200 219 214 218
93 92 113 117 124 114 125 130 146 165 161 166 161 155 143 143 140 303 165 181 194 200 218 216 236 270 201 212 208 174 180 202 202 204 204 214 220 216
110 108 111 124 174 119 121 157 183 169 185 186 187 172 154 165 174 225 193 200 208 214 212 210 210 250 240 223 229 200 191 195 196 208 212 218 222 232
119 133 142 151 146 156 165 175 190 181 185 166 167 160 162 176 202 196 215 216 220 207 206 186 206 234 239 236 234 215 208 206 183 203 209 222 233 247
158 147 156 156 166 164 172 176 175 179 182 177 168 175 178 201 202 181 208 215 246 229 229 205 188 209 210 212 221 248 234 223 208 211 211 233 254 266
164 135 165 159 168 170 188 167 168 163 151 151 159 168 171 174 197 191 216 219 241 223 183 225 196 234 248 252 153 217 261 222 211 218 223 227 246 275
152 147 160 158 176 172 200 157 146 153 158 154 163 160 165 177 196 240 218 207 214 239 277 243 242 246 264 281 290 289 224 264 243 248 243 233 245 164
143 157 162 165 172 196 184 158 171 151 158 165 161 164 170 178 193 205 219 269 169 220 227 215 215 47 15 332 283 279 296 212 246 219 298 271 260 272
148 154 154 152 177 189 159 164 141 157 161 165 165 170 177 175 191 222 218 204 205 217 251 335 137 136 184 228 265 271 275 250 214 127 98 167 300 306
157 159 155 162 188 180 176 178 163 172 175 167 170 170 172 183 219 185 211 225 246 276 226 229 203 196 223 253 285 299 315 318 211 153 103 22 30 156